Regional Weather Roundup
Issued by NWS

Home | Current Version | Previous Version | Graphics & Text | Print | Product List | Glossary On
Versions: 1 2 3 4 5 6 7 8 9 10 11 12 13 14 15 16 17 18 19 20 21 22 23 24 25 26 27 28 29 30 31 32 33 34 35 36 37 38 39 40 41 42 43 44 45 46 47 48 49 50
000
ASUS43 KMPX 161410
RWRMN
WEATHER ROUNDUP FOR MINNESOTA
NATIONAL WEATHER SERVICE TWIN CITIES/CHANHASSEN MN
900 AM CDT WED APR 16 2014


NOTE: "FAIR" INDICATES FEW OR NO CLOUDS BELOW 12,000 FEET WITH NO
SIGNIFICANT WEATHER AND/OR OBSTRUCTIONS TO VISIBILITY. N/A MEANS
CURRENT SKY AND/OR WEATHER CONDITIONS ARE NOT AVAILABLE.

MNZ060>063-068>070-161500-
   Twin Cities Metro

CITY           SKY/WX    TMP DP  RH WIND       PRES   REMARKS
TWIN CITIES    CLOUDY    34  22  61 E22G31    29.97S WCI  22
ST PAUL        LGT SNOW  34  21  59 E23G30    29.99F WCI  22
CRYSTAL        CLOUDY    34  19  54 E10G21    29.96F WCI  26
BLAINE         CLOUDY   N/A N/A N/A E16G25    29.97F
EDEN PRAIRIE   CLOUDY    36  19  50 E17G24    29.93F
LAKEVILLE      CLOUDY    34  21  60 E15       29.93F WCI  24
SOUTH ST PAUL  CLOUDY    37  21  51 E13       29.96F
LAKE ELMO      CLOUDY    32  23  69 E16G23    30.00F WCI  21
$$
MNZ001>005-007-008-013>017-022>024-027-028-161500-
   Northwest Minnesota

CITY           SKY/WX    TMP DP  RH WIND       PRES   REMARKS
BEMIDJI        CLOUDY    28   9  44 E10       30.07R WCI  19
HALLOCK        CLOUDY    27  10  50 E13       30.17R WCI  16
ROSEAU         SUNNY     25  10  54 E12       30.18R WCI  14
WARROAD        SUNNY     19  10  68 NE10      30.20R WCI   8
THIEF RVR FALL PTSUNNY   28   7  40 NE14      30.11R WCI  17
CROOKSTON      PTSUNNY   30  10  43 E16       30.11R WCI  19
FOSSTON        CLOUDY    28   9  43 E10G18    30.07R WCI  19
DETROIT LAKES  MIX PCPN  28  23  80 E13G18    30.00R WCI  18
MOORHEAD       CLOUDY    28  25  86 NE15      30.01R WCI  17
PARK RAPIDS    LGT SNOW  25  21  85 E12G18    30.02S FOG     WCI  14
$$
MNZ006-009>011-018-025>026-161500-
   North Central Minnesota

CITY           SKY/WX    TMP DP  RH WIND       PRES   REMARKS
BAUDETTE       PTSUNNY   25   7  46 E9        30.18R WCI  15
FLAG ISLAND    SUNNY     21   1  42 E5        30.21R WCI  15
INTL FALLS     PTSUNNY   24   5  44 E9        30.19R WCI  14
WASKISH        PTSUNNY   27   7  43 E9        30.14R WCI  17
BIG FORK       CLOUDY    27   7  43 NE8       30.13S WCI  18
LONGVILLE      LGT SNOW  27  16  63 E8        30.07S WCI  18
GRAND RAPIDS   CLOUDY    27   9  46 E7        30.10R WCI  19
CRANE LAKE     CLOUDY    21  16  79 CALM      30.21S
ORR            CLOUDY    25   0  33 SE5       30.14R WCI  19
COOK           CLOUDY    25   9  50 E5        30.15F WCI  19
$$
MNZ012-019>021-037-161500-
   Northeast Minnesota

CITY           SKY/WX    TMP DP  RH WIND       PRES   REMARKS
DULUTH         CLOUDY    27  12  53 E10       30.13R WCI  17
ELY            CLOUDY    23   9  54 CALM      30.17S
HIBBING        CLOUDY    28  10  46 E7        30.13R WCI  21
EVELETH        CLOUDY    28  10  47 E6        30.15R WCI  22
DULUTH HARBOR  CLOUDY    28  21  74 NE13      30.19R WCI  18
TWO HARBORS    CLOUDY    27  16  63 NE9       30.15S WCI  17
SILVER BAY     CLOUDY    27  18  69 NE9       30.17S WCI  17
GRAND MARAIS     N/A     29  13  51 E9        30.26R WCI  20
G MARAIS ARPRT CLOUDY    21   7  53 NE6       30.18R WCI  14
$$
MNZ029>031-032-039>041-046>048-054>057-064-161500-
   West Central Minnesota

CITY           SKY/WX    TMP DP  RH WIND       PRES   REMARKS
FERGUS FALLS   LGT SNOW  27  21  80 E20G28    29.92F WCI  13
WHEATON        LGT SNOW  30  28  93 E17G25    29.91S WCI  18
MORRIS         FLURRIES N/A N/A N/A E29       29.85S
ALEXANDRIA     SNOW      27  25  93 E23G30    29.91S VSB 1/2 WCI  12
ELBOW LAKE     LGT SNOW  27  25  91 E20G26    29.91S VSB 3/4 WCI  14
WADENA         CLOUDY    25  21  86 E14G23    29.98F WCI  13
GLENWOOD       LGT SNOW  27  25  93 E22G31    29.90S WCI  12
APPLETON       CLOUDY    34  21  60 E21G31    29.82F WCI  22
BENSON         LGT SNOW  30  23  74 SE18G30   29.85S WCI  18
ORTONVILLE     LGT SNOW  30  21  69 E18G29    29.82F WCI  18
MADISON        LGT SNOW  37  27  65 E23G32    29.80F
WILLMAR        SNOW      30  27  86 E17G28    29.87S VSB 1/2 WCI  18
$$
MNZ033>034-036-042>043-049>051-058-059-161500-
   Central Minnesota

CITY           SKY/WX    TMP DP  RH WIND       PRES   REMARKS
ST CLOUD       LGT SNOW  30  25  80 E13G22    29.96S WCI  20
SAUK CENTRE    LGT SNOW  28  24  88 E18G28    29.92S WCI  15
PAYNESVILLE    LGT SNOW  30  24  77 E13G21    29.91S WCI  20
AITKIN         LGT SNOW  28  21  74 E12       30.06S WCI  18
PINE RIVER     LGT SNOW  27  23  86 E12G20    30.08S WCI  16
BRAINERD       LGT SNOW  30  22  72 E12G18    30.03S VSB 1   WCI  20
STAPLES        LGT SNOW  25  21  86 E13       29.99F WCI  13
LONG PRAIRIE   CLOUDY    27  23  86 NE14G26   29.95R VSB 3/4 WCI  15
LITTLE FALLS   LGT SNOW  28  23  80 E10G16    29.99R WCI  19
LITCHFIELD     SNOW      30  30 100 E16G22    29.90S VSB 1/2 WCI  19
BUFFALO        LGT SNOW  32  23  70 E14G22    29.96R WCI  22
MAPLE LAKE     LGT SNOW  31  27  84 E13G21    29.95R VSB 1   WCI  21
$$
MNZ037-044-045-052-053-161500-
   East Central Minnesota

CITY           SKY/WX    TMP DP  RH WIND       PRES   REMARKS
PRINCETON      LGT SNOW  30  27  86 E9G21     29.99S WCI  22
MORA           CLOUDY    28  23  80 E13G20    30.05F WCI  18
CAMBRIDGE      LGT SNOW  30  23  74 E10G20    29.99F WCI  21
RUSH CITY      LGT SNOW  28  26  89 E13       30.03F WCI  18
MOOSE LAKE     LGT SNOW  27  21  80 NE5       30.09F VSB 1   WCI  21
HINCKLEY       LGT SNOW  28  27  93 E12       30.07F WCI  18
CLOQUET        LGT SNOW  25  18  74 E8        30.13R WCI  16
MCGREGOR       CLOUDY    28  23  80 E12       30.09S WCI  18
$$
MNZ071>073-080-081-089-090-097-098-161500-
   Southwest Minnesota

CITY           SKY/WX    TMP DP  RH WIND       PRES   REMARKS
MONTEVIDEO     LGT SNOW  32  27  80 SE23G32   29.82F WCI  19
GRANITE FALLS  LGT SNOW  33  25  70 E21G31    29.81F WCI  22
CANBY          LGT SNOW  34  26  72 E16G22    29.78F WCI  23
MARSHALL       CLOUDY    36  23  60 E20G25    29.74F
REDWOOD FALLS  CLOUDY    37  24  59 E13G25    29.80F
OLIVIA         FLURRIES  34  23  64 E14G24    29.82F WCI  24
PIPESTONE      CLOUDY    39  30  70 SE10      29.66S
WINDOM         CLOUDY    37  30  75 E14       29.73F
WORTHINGTON    CLOUDY    39  28  65 SE16      29.69F
JACKSON        CLOUDY    41  30  65 SE14G23   29.73F
TRACY          LGT SNOW  37  29  73 E13       29.73F
SLAYTON        CLOUDY    37  31  79 E12       29.70F
$$
MNZ065>067-074>077-082>085-091>093-161500-
   South Central Minnesota

CITY           SKY/WX    TMP DP  RH WIND       PRES   REMARKS
MANKATO        CLOUDY    37  25  60 SE20      29.86S
NEW ULM        CLOUDY    37  27  65 SE13      29.83R
ST JAMES       CLOUDY    39  28  65 SE16      29.80F
FAIRMONT       CLOUDY    39  27  60 SE18G26   29.79S
GLENCOE        CLOUDY    37  20  50 E17       29.89S
FARIBAULT      CLOUDY    39  19  45 E15G25    29.90F
OWATONNA       DRIZZLE   37  25  60 SE21G29   29.85F
WASECA         CLOUDY    37  28  70 SE18      29.87F
ALBERT LEA     CLOUDY    37  27  65 SE21G29   29.85F
$$
MNZ078>079-086>088-094>096-161500-
   Southeast Minnesota

CITY           SKY/WX    TMP DP  RH WIND       PRES   REMARKS
ROCHESTER      CLOUDY    36  22  56 SE24G33   29.92F
RED WING       CLOUDY    37  19  48 E14G23    29.97F
STANTON        CLOUDY    37  20  50 SE13G20   29.92F
DODGE CENTER   CLOUDY    37  25  60 SE25      29.90F
WINONA         CLOUDY    37  21  52 SE18      30.02F
AUSTIN         CLOUDY    36  25  64 SE16      29.89F
PRESTON        CLOUDY    36  23  58 SE13G25   29.97S
$$
ABBREVIATIONS USED IN REMARKS
   TC - TEMPERATURES IN CELSIUS
  WCI - WIND CHILL INDEX
   HX - HEAT INDEX
  VSB - VISIBILITY
$$



USA.gov is the U.S. government's official web portal to all federal, state and local government web resources and services.